DON PEDRO RESERVOIR (DNP)

Elevation: 830' · TUOLUMNE R basin · Operator: Turlock Irrigation District

Provisional data, subject to change.
Query executed Tuesday at 21:16:23   clock

Select a sensor type for a plot of data.
Note: Reservoir Flows are daily averages.

Earlier

Date RES ELE    STORAGE    RES CHG    TOC STO    ABV TOC    OUTFLOW    INFLOW    PPT INC   
 FEET   AF   AF   AF   AF   CFS   CFS   INCHES  
08/24/2014 704.76 834270 -- 2030000 -- 1601 586 0.00
08/25/2014 704.53 832260 -- 2030000 -1197740 1148 135 0.00
08/26/2014 704.23 830250 -- 2030000 -1199750 1386 374 0.00
08/27/2014 703.81 827580 -- 2030000 -1202420 1794 447 0.00
08/28/2014 703.48 825580 -- 2030000 -1204420 1687 679 0.00
08/29/2014 703.20 823580 -- 2030000 -- 1215 209 0.00
08/30/2014 702.96 822260 -- 2030000 -- 1208 538 0.00
08/31/2014 702.62 819600 -- 2030000 -- 1363 26 0.00
09/01/2014 702.30 817620 -- 2030000 -- 1556 554 0.00
09/02/2014 702.01 815630 -- 2030000 -1214370 1129 129 0.00
09/03/2014 701.67 813660 -- 2030000 -1216340 1397 399 0.00
09/04/2014 701.43 811680 -- 2030000 -- 1182 186 0.00
09/05/2014 701.12 701 -- 2030000 -- 1345 350 0.00
09/06/2014 700.86 808390 -- 2030000 -- 1297 635 0.00
09/07/2014 700.50 805770 -- 2030000 -1224230 1108 -214 0.00
09/08/2014 700.27 804460 -- 2030000 -1225540 831 171 0.00
09/09/2014 700.07 803150 -- 2018300 -1215150 920 261 0.00
09/10/2014 699.88 801280 -- 2006600 -1205320 982 37 0.00
09/11/2014 699.57 799980 -- 1994800 -1194820 1267 610 0.00
09/12/2014 699.37 798020 -- 1983100 -- 931 -53 0.00
09/13/2014 699.12 796720 -- 1971400 -- 1033 377 0.00
09/14/2014 698.88 794780 -- 1959700 -1164920 1071 89 0.00
09/15/2014 698.59 793480 -- 1947900 -1154420 1137 483 0.00
09/16/2014 698.35 790890 -- 1936200 -- 1100 -206 0.00
09/17/2014 698.07 790240 -- 1924500 -1134260 1383 1057 0.00
09/18/2014 697.93 788310 -- 1912800 -1124490 996 19 0.00
09/19/2014 697.78 787660 -- 1901000 -- 683 358 0.00
09/20/2014 697.72 787660 -- 1889300 -- 488 488 0.00
09/21/2014 697.63 787020 -- 1877600 -1090580 479 154 0.00
09/22/2014 697.50 786370 -- 1865900 -1079530 689 365 0.00
09/23/2014 -- -- -- -- -- -- -- --

Later | Latest

Warning! This data is preliminary and subject to revision.

Download Data Now Download Data Now | Show DNP Map | Plot DNP Data | 1 Month DNP Data | Real-Time DNP Data | DNP Info